EW4552 Weather Reports


time (UTC)temp
C
wind
direction
speed
KPH
gust
KPH
rain 1hr
cm
rain 24hr
cm
rain mn
cm
humidity
%
barometer
mb
20260504173458 17 228 3.2 12.9 0.00 0.00 0.00 52 1007.1
20260504172958 17 108 4.8 25.7 0.00 0.00 0.00 54 1007.0
20260504172459 17 331 4.8 25.7 0.00 0.00 0.00 58 1007.0
20260504171958 17 320 3.2 12.9 0.00 0.00 0.00 47 1007.0
20260504171458 17 169 3.2 12.9 0.00 0.00 0.00 49 1007.0
20260504170458 17 39 3.2 12.9 0.00 0.00 0.00 58 1007.0
20260504150958 17 219 4.8 12.9 0.00 0.00 0.00 52 1007.9
20260504141000 14 46 4.8 12.9 0.00 0.00 0.00 18 1008.1
20260504140459 13 317 3.2 16.1 0.00 0.00 0.00 22 1008.0
20260504130458 10 178 3.2 11.3 0.00 0.00 0.00 1 1008.9
20260504110458 3 89 0.0 1.6 0.00 0.00 0.00 1 1009.7
20260504100459 3 89 0.0 3.2 0.00 0.03 0.00 1 1009.5
20260504081957 2 28 0.0 3.2 0.00 0.03 0.00 1 1009.7
20260504081458 2 223 0.0 1.6 0.00 0.03 0.00 1 1009.6
20260504080956 2 63 0.0 3.2 0.00 0.03 0.00 1 1009.7
20260504080457 2 1 0.0 3.2 0.00 0.03 0.00 1 1009.7
20260504050000 0 321 1.6 3.2 0.00 0.03 0.00 1 1009.9
20260504045001 0 269 0.0 1.6 0.00 0.03 0.00 1 1010.0
20260504044000 0 206 0.0 3.2 0.00 0.03 0.00 1 1010.1
20260504043501 0 178 1.6 3.2 0.00 0.03 0.00 1 1010.1
20260504043001 0 223 1.6 3.2 0.00 0.03 0.00 1 1010.1
20260504042500 1 197 1.6 1.6 0.00 0.03 0.00 1 1010.0
20260504041500 1 223 0.0 1.6 0.00 0.03 0.00 1 1010.0
20260504041000 1 314 0.0 1.6 0.00 0.03 0.00 1 1010.0
20260504035500 1 46 1.6 3.2 0.00 0.03 0.03 1 1009.8
20260504034500 1 340 1.6 3.2 0.00 0.03 0.03 1 1009.8
20260504034000 1 324 1.6 3.2 0.00 0.03 0.03 1 1009.8
20260504033000 1 331 1.6 3.2 0.00 0.03 0.03 1 1009.8
20260504032501 1 327 1.6 3.2 0.00 0.03 0.03 1 1009.8
20260504032000 1 331 1.6 3.2 0.00 0.03 0.03 1 1009.9
20260504030500 1 324 1.6 3.2 0.00 0.03 0.03 1 1009.7
20260504030001 1 314 1.6 3.2 0.00 0.03 0.03 1 1009.7
20260504025502 1 324 1.6 3.2 0.00 0.03 0.03 1 1009.7
20260504025000 1 314 1.6 3.2 0.00 0.03 0.03 1 1009.7
20260504024501 1 303 0.0 3.2 0.00 0.03 0.03 1 1009.7
20260504024000 1 1 1.6 3.2 0.00 0.03 0.03 1 1009.7
20260504023500 1 46 1.6 3.2 0.00 0.03 0.03 1 1009.8
20260504023000 2 178 1.6 3.2 0.00 0.03 0.03 1 1009.8
20260504022001 2 1 0.0 3.2 0.00 0.03 0.03 1 1009.9
20260504021500 2 46 0.0 1.6 0.00 0.03 0.03 1 1009.9
20260504021000 2 46 0.0 1.6 0.00 0.03 0.03 1 1009.8
20260504020501 2 46 1.6 3.2 0.00 0.03 0.03 1 1009.8
20260504020002 2 223 0.0 3.2 0.00 0.03 0.03 1 1009.8
20260504015459 3 124 0.0 1.6 0.00 0.13 0.03 1 1009.8
20260504014500 3 46 0.0 1.6 0.00 0.13 0.03 1 1009.6
20260504014000 3 178 0.0 1.6 0.00 0.13 0.03 1 1009.7
20260504013501 3 178 0.0 1.6 0.00 0.13 0.03 1 1009.7
20260504012500 4 1 0.0 1.6 0.00 0.13 0.03 1 1009.6
20260504012001 4 223 1.6 1.6 0.00 0.13 0.03 1 1009.6
20260504011500 5 223 0.0 1.6 0.00 0.13 0.03 1 1009.5
20260504011000 5 234 0.0 3.2 0.00 0.13 0.03 1 1009.3
20260504010500 5 223 0.0 3.2 0.00 0.13 0.03 1 1009.3
20260504010003 5 206 0.0 1.6 0.00 0.13 0.03 3 1009.3
20260504005500 5 269 0.0 1.6 0.00 0.13 0.03 2 1009.2
20260504005000 5 314 0.0 3.2 0.00 0.13 0.03 4 1009.2
20260504004500 6 269 0.0 3.2 0.00 0.13 0.03 2 1009.1
20260504003500 6 269 0.0 1.6 0.00 0.13 0.03 2 1009.0
20260504003001 6 241 0.0 1.6 0.00 0.13 0.03 3 1009.0
20260504002501 6 46 0.0 1.6 0.00 0.13 0.03 3 1008.9
20260504002001 6 269 0.0 1.6 0.00 0.13 0.03 4 1008.9
20260504001459 7 1 0.0 1.6 0.00 0.13 0.03 4 1008.8
20260504000501 7 1 1.6 1.6 0.00 0.13 0.03 6 1008.7
20260504000003 7 89 0.0 1.6 0.00 0.13 0.03 5 1008.6
20260503235500 7 89 0.0 1.6 0.00 0.13 0.03 6 1008.6
20260503235000 7 223 0.0 1.6 0.00 0.13 0.03 8 1008.5
20260503234500 8 46 0.0 3.2 0.00 0.13 0.03 13 1008.5
20260503233459 8 241 1.6 4.8 0.00 0.13 0.03 19 1008.4
20260503233001 8 246 1.6 4.8 0.00 0.13 0.03 20 1008.4
20260503232000 8 142 1.6 4.8 0.00 0.13 0.03 22 1008.3
20260503231000 8 216 1.6 6.4 0.00 0.13 0.03 24 1008.2
20260503230500 8 234 1.6 6.4 0.00 0.13 0.03 23 1008.2
20260503230000 8 135 1.6 8.0 0.00 0.13 0.03 21 1008.2
20260503225458 8 219 1.6 8.0 0.00 0.13 0.03 21 1008.2
20260503225000 8 250 3.2 9.7 0.00 0.13 0.03 26 1008.2
20260503224500 8 300 3.2 11.3 0.00 0.13 0.03 25 1008.3
20260503224000 8 269 3.2 11.3 0.00 0.13 0.03 27 1008.2
20260503223459 8 314 3.2 8.0 0.00 0.13 0.03 24 1008.1
20260503222959 9 46 1.6 8.0 0.00 0.13 0.03 20 1008.1
20260503222459 9 191 1.6 6.4 0.00 0.13 0.03 24 1008.1
20260503222000 9 63 3.2 9.7 0.00 0.13 0.03 30 1008.1
20260503221000 9 223 3.2 8.0 0.00 0.13 0.03 27 1008.1
20260503220459 9 234 3.2 11.3 0.00 0.13 0.03 25 1008.0
20260503215959 9 314 3.2 11.3 0.00 0.13 0.03 28 1007.9
20260503215459 9 228 3.2 11.3 0.00 0.13 0.03 28 1008.0
20260503214959 9 269 3.2 11.3 0.00 0.13 0.03 32 1007.9
20260503214000 9 220 3.2 11.3 0.00 0.13 0.03 30 1008.0
20260503213459 9 293 4.8 16.1 0.00 0.13 0.03 35 1007.9
20260503213000 9 187 3.2 16.1 0.00 0.13 0.03 33 1007.9
20260503212459 9 241 3.2 8.0 0.00 0.13 0.03 30 1007.8
20260503211959 9 228 3.2 11.3 0.00 0.13 0.03 43 1007.8
20260503211459 9 250 3.2 12.9 0.00 0.13 0.03 41 1007.7
20260503210959 9 209 3.2 12.9 0.00 0.13 0.03 34 1007.7
20260503210458 9 170 3.2 9.7 0.00 0.13 0.03 32 1007.7
20260503205959 9 206 3.2 11.3 0.00 0.23 0.03 34 1007.6
20260503205459 9 314 3.2 11.3 0.00 0.23 0.03 34 1007.7
20260503204959 9 217 3.2 11.3 0.00 0.23 0.03 34 1007.6
20260503204000 9 220 3.2 11.3 0.00 0.23 0.03 40 1007.5
20260503203500 9 56 4.8 11.3 0.00 0.23 0.03 54 1007.4
20260503202959 10 216 3.2 11.3 0.00 0.23 0.03 32 1007.4
20260503202500 10 223 3.2 8.0 0.00 0.23 0.03 30 1007.4
20260503201958 10 152 3.2 8.0 0.00 0.23 0.03 33 1007.4
20260503201500 10 253 3.2 8.0 0.00 0.23 0.03 32 1007.3
20260503200959 10 231 3.2 8.0 0.00 0.23 0.03 34 1007.3
20260503200001 10 105 3.2 6.4 0.00 0.23 0.03 34 1007.3
20260503194959 10 250 3.2 11.3 0.00 0.28 0.03 36 1007.2
20260503194459 10 306 3.2 9.7 0.00 0.28 0.03 29 1007.3
20260503193959 10 46 3.2 9.7 0.00 0.28 0.03 31 1007.2
20260503193500 10 219 3.2 9.7 0.00 0.28 0.03 32 1007.2
20260503192959 10 115 3.2 9.7 0.00 0.28 0.03 35 1007.3
20260503191959 10 190 3.2 12.9 0.00 0.28 0.03 44 1007.4
20260503191459 10 226 3.2 11.3 0.00 0.28 0.03 43 1007.5
20260503190500 10 257 3.2 12.9 0.00 0.28 0.03 29 1007.3
20260503185959 10 178 3.2 12.9 0.00 0.30 0.03 32 1007.3
20260503185459 10 235 3.2 11.3 0.00 0.30 0.03 26 1007.4
20260503184959 10 324 3.2 11.3 0.00 0.30 0.03 33 1007.5
20260503184000 11 314 3.2 11.3 0.00 0.30 0.03 38 1007.5
20260503183500 11 221 3.2 9.7 0.00 0.30 0.03 40 1007.4
20260503182959 11 108 3.2 9.7 0.00 0.30 0.03 32 1007.3
20260503182459 11 295 3.2 16.1 0.00 0.30 0.03 28 1007.3
20260503182000 11 20 3.2 14.5 0.00 0.30 0.03 6 1007.2
20260503181503 11 269 4.8 14.5 0.00 0.30 0.03 2 1007.2
20260503181000 11 229 4.8 12.9 0.00 0.30 0.03 1 1007.0
20260503180500 10 223 3.2 16.1 0.00 0.30 0.03 1 1007.0
20260503175959 10 215 3.2 16.1 0.00 0.30 0.03 1 1007.2
20260503175459 10 46 3.2 11.3 0.00 0.30 0.03 1 1007.2
20260503174959 10 246 3.2 11.3 0.00 0.30 0.03 1 1007.4
20260503174500 10 208 3.2 11.3 0.00 0.30 0.03 1 1007.3